This is the latest recevied weather packets stored in our database for station/object K5KHP. If no packets are shown the sender has not sent any weather packets the latest 10 day(s).
| Time | Temp. | Humidity | Pressure | Rain* | Wind** | Luminosity | Snow |
|---|---|---|---|---|---|---|---|
| 1777319016 | 18.89° C | 50% | 1015.7 hPa | 0 mm | - | 629 W/m² | - |
| 1777318713 | 18.89° C | 47% | 1016 hPa | 0 mm | - | 630 W/m² | - |
| 1777318408 | 18.89° C | 50% | 1015.9 hPa | 0 mm | - | 662 W/m² | - |
| 1777318106 | 18.89° C | 49% | 1015.8 hPa | 0 mm | - | 659 W/m² | - |
| 1777317803 | 18.89° C | 49% | 1015.9 hPa | 0 mm | - | 644 W/m² | - |
| 1777317500 | 18.89° C | 48% | 1016 hPa | 0 mm | - | 619 W/m² | - |
| 1777317197 | 18.89° C | 49% | 1016.1 hPa | 0 mm | - | 629 W/m² | - |
| 1777316892 | 18.89° C | 49% | 1016.2 hPa | 0 mm | - | 638 W/m² | - |
| 1777316589 | 18.89° C | 50% | 1016.2 hPa | 0 mm | - | 619 W/m² | - |
| 1777316287 | 18.33° C | 50% | 1016 hPa | 0 mm | - | 489 W/m² | - |
| 1777315983 | 18.33° C | 51% | 1016 hPa | 0 mm | - | 691 W/m² | - |
| 1777315682 | 18.33° C | 49% | 1016 hPa | 0 mm | - | 680 W/m² | - |
| 1777315380 | 18.33° C | 49% | 1016.2 hPa | 0 mm | - | 693 W/m² | - |
| 1777315078 | 18.89° C | 50% | 1015.9 hPa | 0 mm | - | 681 W/m² | - |
| 1777314777 | 18.89° C | 50% | 1015.9 hPa | 0 mm | - | 670 W/m² | - |
| 1777314474 | 17.78° C | 52% | 1015.8 hPa | 0 mm | - | 648 W/m² | - |
| 1777314171 | 18.89° C | 50% | 1015.8 hPa | 0 mm | - | 679 W/m² | - |
| 1777313870 | 18.89° C | 51% | 1015.6 hPa | 0 mm | - | 684 W/m² | - |
| 1777313566 | 18.33° C | 52% | 1015.6 hPa | 0 mm | - | 669 W/m² | - |
| 1777313264 | 18.89° C | 52% | 1015.6 hPa | 0 mm | - | 666 W/m² | - |
| 1777312960 | 17.78° C | 55% | 1015.6 hPa | 0 mm | - | 669 W/m² | - |
| 1777312657 | 18.33° C | 56% | 1015.6 hPa | 0 mm | - | 692 W/m² | - |
| 1777312354 | 18.89° C | 56% | 1015.4 hPa | 0 mm | - | 666 W/m² | - |
| 1777312051 | 17.78° C | 57% | 1015.6 hPa | 0 mm | - | 682 W/m² | - |
| 1777311741 | 17.78° C | 58% | 1015.5 hPa | 0 mm | - | 719 W/m² | - |
* Rain latest hour (hover to see other rain measurements)
** Current wind speed in m/s (hover to see current wind gust speed)